owner,sensor,date,latitude,longitude,vertical_datum,wind_speed,wind_to_direction,wind_speed_of_gust,qcFlag 
TABS,ioos:station:wmo:42045:1,2019-06-01T03:30:00Z,26.2168,-96.4998,4.0,6.43,104.9,7.77,'11111222,11111222,11111222' 
TABS,ioos:station:wmo:42045:1,2019-06-01T06:00:00Z,26.2168,-96.4998,4.0,5.64,115.9,7.0,'11111222,11111222,11111222' 
TABS,ioos:station:wmo:42045:1,2019-06-01T08:00:00Z,26.2168,-96.4998,4.0,5.68,128.8,7.02,'11111222,11111222,11111222' 
TABS,ioos:station:wmo:42045:1,2019-06-01T09:00:00Z,26.2168,-96.4998,4.0,4.52,128.3,5.38,'11111222,11111222,11111222' 
TABS,ioos:station:wmo:42045:1,2019-06-01T10:00:00Z,26.2168,-96.4998,4.0,2.71,95.8,3.72,'11111222,11111222,11111222' 
TABS,ioos:station:wmo:42045:1,2019-06-01T11:00:00Z,26.2168,-96.4998,4.0,2.45,66.0,3.15,'11111222,11111222,11111222' 
TABS,ioos:station:wmo:42045:1,2019-06-01T12:00:00Z,26.2168,-96.4998,4.0,2.85,76.0,3.48,'11111222,11111222,11111222' 
TABS,ioos:station:wmo:42045:1,2019-06-01T13:00:00Z,26.2168,-96.4998,4.0,3.49,88.6,4.39,'11111222,11111222,11111222' 
TABS,ioos:station:wmo:42045:1,2019-06-01T14:00:00Z,26.2168,-96.4998,4.0,3.46,83.8,4.33,'11111222,11111222,11111222' 
TABS,ioos:station:wmo:42045:1,2019-06-01T15:00:00Z,26.2168,-96.4998,4.0,3.88,91.0,4.81,'11111222,11111222,11111222' 
TABS,ioos:station:wmo:42045:1,2019-06-01T15:30:00Z,26.2168,-96.4998,4.0,3.72,88.5,4.26,'11111222,11111222,11111222' 
TABS,ioos:station:wmo:42045:1,2019-06-01T17:00:00Z,26.2168,-96.4998,4.0,3.76,90.8,4.48,'11111222,11111222,11111222' 
TABS,ioos:station:wmo:42045:1,2019-06-01T17:30:00Z,26.2168,-96.4998,4.0,4.02,93.3,4.7,'11111222,11111222,11111222' 
TABS,ioos:station:wmo:42045:1,2019-06-01T18:30:00Z,26.2168,-96.4998,4.0,4.17,92.4,5.08,'11111222,11111222,11111222' 
TABS,ioos:station:wmo:42045:1,2019-06-01T19:30:00Z,26.2168,-96.4998,4.0,4.17,102.2,4.97,'11111222,11111222,11111222' 
TABS,ioos:station:wmo:42045:1,2019-06-01T20:30:00Z,26.2168,-96.4998,4.0,3.75,100.0,4.47,'11111222,11111222,11111222' 
TABS,ioos:station:wmo:42045:1,2019-06-01T23:00:00Z,26.2168,-96.4998,4.0,4.96,83.6,5.77,'11111222,11111222,11111222' 
TABS,ioos:station:wmo:42045:1,2019-06-01T23:30:00Z,26.2168,-96.4998,4.0,5.28,85.5,6.31,'11111222,11111222,11111222' 
TABS,ioos:station:wmo:42045:1,2019-06-02T04:00:00Z,26.2168,-96.4998,4.0,5.74,116.5,6.61,'11111222,11111222,11111222' 
TABS,ioos:station:wmo:42045:1,2019-06-02T05:00:00Z,26.2168,-96.4998,4.0,6.8,123.8,7.74,'11111222,11111222,11111222' 
TABS,ioos:station:wmo:42045:1,2019-06-02T07:30:00Z,26.2168,-96.4998,4.0,4.33,95.4,5.12,'11111222,11111222,11111222' 
TABS,ioos:station:wmo:42045:1,2019-06-02T11:00:00Z,26.2168,-96.4998,4.0,4.92,114.0,6.19,'11111222,11111222,11111222' 
TABS,ioos:station:wmo:42045:1,2019-06-02T12:30:00Z,26.2168,-96.4998,4.0,5.1,128.1,6.25,'11111222,11111222,11111222' 
TABS,ioos:station:wmo:42045:1,2019-06-02T16:00:00Z,26.2168,-96.4998,4.0,3.63,100.8,4.39,'11111222,11111222,11111222' 
TABS,ioos:station:wmo:42045:1,2019-06-02T17:00:00Z,26.2168,-96.4998,4.0,3.78,103.8,4.61,'11111222,11111222,11111222' 
TABS,ioos:station:wmo:42045:1,2019-06-02T18:00:00Z,26.2168,-96.4998,4.0,3.9,89.1,4.6,'11111222,11111222,11111222' 
TABS,ioos:station:wmo:42045:1,2019-06-02T19:00:00Z,26.2168,-96.4998,4.0,4.47,115.6,5.57,'11111222,11111222,11111222' 
TABS,ioos:station:wmo:42045:1,2019-06-02T20:00:00Z,26.2168,-96.4998,4.0,4.34,113.9,5.11,'11111222,11111222,11111222' 
TABS,ioos:station:wmo:42045:1,2019-06-02T21:00:00Z,26.2168,-96.4998,4.0,4.28,111.4,5.07,'11111222,11111222,11111222' 
TABS,ioos:station:wmo:42045:1,2019-06-02T22:00:00Z,26.2168,-96.4998,4.0,4.91,104.8,5.95,'11111222,11111222,11111222' 
TABS,ioos:station:wmo:42045:1,2019-06-02T23:00:00Z,26.2168,-96.4998,4.0,5.61,115.0,6.62,'11111222,11111222,11111222' 
TABS,ioos:station:wmo:42045:1,2019-06-02T23:30:00Z,26.2168,-96.4998,4.0,6.05,123.2,6.91,'11111222,11111222,11111222' 
TABS,ioos:station:wmo:42045:1,2019-06-03T03:30:00Z,26.2168,-96.4998,4.0,7.18,123.3,8.39,'11111222,11111222,11111222' 
TABS,ioos:station:wmo:42045:1,2019-06-03T06:00:00Z,26.2168,-96.4998,4.0,7.12,126.8,8.14,'11111222,11111222,11111222' 
TABS,ioos:station:wmo:42045:1,2019-06-03T07:00:00Z,26.2168,-96.4998,4.0,6.64,124.6,7.66,'11111222,11111222,11111222' 
TABS,ioos:station:wmo:42045:1,2019-06-03T08:00:00Z,26.2168,-96.4998,4.0,6.03,122.6,7.39,'11111222,11111222,11111222' 
TABS,ioos:station:wmo:42045:1,2019-06-03T09:30:00Z,26.2168,-96.4998,4.0,5.04,116.1,6.35,'11111222,11111222,11111222' 
TABS,ioos:station:wmo:42045:1,2019-06-03T10:30:00Z,26.2168,-96.4998,4.0,5.21,118.8,6.27,'11111222,11111222,11111222' 
TABS,ioos:station:wmo:42045:1,2019-06-03T14:00:00Z,26.2168,-96.4998,4.0,5.47,88.6,6.41,'11111222,11111222,11111222' 
TABS,ioos:station:wmo:42045:1,2019-06-03T15:30:00Z,26.2168,-96.4998,4.0,5.73,91.1,6.86,'11111222,11111222,11111222' 
TABS,ioos:station:wmo:42045:1,2019-06-03T17:00:00Z,26.2168,-96.4998,4.0,5.77,91.7,6.93,'11111222,11111222,11111222' 
TABS,ioos:station:wmo:42045:1,2019-06-03T18:30:00Z,26.2168,-96.4998,4.0,5.39,89.4,6.77,'11111222,11111222,11111222' 
TABS,ioos:station:wmo:42045:1,2019-06-03T20:30:00Z,26.2168,-96.4998,4.0,6.5,100.5,7.54,'11111222,11111222,11111222' 
TABS,ioos:station:wmo:42045:1,2019-06-03T21:30:00Z,26.2168,-96.4998,4.0,6.52,95.9,7.47,'11111222,11111222,11111222' 
TABS,ioos:station:wmo:42045:1,2019-06-03T22:30:00Z,26.2168,-96.4998,4.0,7.06,98.8,7.99,'11111222,11111222,11111222' 
TABS,ioos:station:wmo:42045:1,2019-06-03T23:30:00Z,26.2168,-96.4998,4.0,7.93,104.2,9.39,'11111222,11111222,11111222' 
TABS,ioos:station:wmo:42045:1,2019-06-04T03:30:00Z,26.2168,-96.4998,4.0,7.85,116.6,9.06,'11111222,11111222,11111222' 
TABS,ioos:station:wmo:42045:1,2019-06-04T09:00:00Z,26.2168,-96.4998,4.0,6.62,104.9,8.01,'11111222,11111222,11111222' 
TABS,ioos:station:wmo:42045:1,2019-06-04T10:00:00Z,26.2168,-96.4998,4.0,6.97,95.8,9.06,'11111222,11111222,11111222' 
TABS,ioos:station:wmo:42045:1,2019-06-04T11:00:00Z,26.2168,-96.4998,4.0,6.85,104.0,8.09,'11111222,11111222,11111222' 
TABS,ioos:station:wmo:42045:1,2019-06-04T12:00:00Z,26.2168,-96.4998,4.0,7.0,105.5,8.45,'11111222,11111222,11111222' 
TABS,ioos:station:wmo:42045:1,2019-06-04T13:00:00Z,26.2168,-96.4998,4.0,8.79,115.5,10.52,'11111222,11111222,11111222' 
TABS,ioos:station:wmo:42045:1,2019-06-04T14:00:00Z,26.2168,-96.4998,4.0,7.89,105.3,9.46,'11111222,11111222,11111222' 
TABS,ioos:station:wmo:42045:1,2019-06-04T15:00:00Z,26.2168,-96.4998,4.0,10.8,146.1,13.48,'11111222,11111222,11111222' 
TABS,ioos:station:wmo:42045:1,2019-06-04T16:00:00Z,26.2168,-96.4998,4.0,11.71,145.7,14.03,'11111222,11111222,11111222' 
TABS,ioos:station:wmo:42045:1,2019-06-04T19:00:00Z,26.2168,-96.4998,4.0,8.06,165.6,9.55,'11111222,11111222,11111222' 
TABS,ioos:station:wmo:42045:1,2019-06-04T20:30:00Z,26.2168,-96.4998,4.0,7.47,154.7,9.3,'11111222,11111222,11111222' 
TABS,ioos:station:wmo:42045:1,2019-06-04T23:30:00Z,26.2168,-96.4998,4.0,8.27,123.7,10.54,'11111222,11111222,11111222' 
TABS,ioos:station:wmo:42045:1,2019-06-05T03:00:00Z,26.2168,-96.4998,4.0,6.96,146.2,8.51,'11111222,11111222,11111222' 
TABS,ioos:station:wmo:42045:1,2019-06-05T04:30:00Z,26.2168,-96.4998,4.0,6.87,144.1,8.51,'11111222,11111222,11111222' 
TABS,ioos:station:wmo:42045:1,2019-06-05T05:30:00Z,26.2168,-96.4998,4.0,7.85,149.9,9.98,'11111222,11111222,11111222' 
TABS,ioos:station:wmo:42045:1,2019-06-05T06:30:00Z,26.2168,-96.4998,4.0,7.41,148.3,8.94,'11111222,11111222,11111222' 
TABS,ioos:station:wmo:42045:1,2019-06-05T08:00:00Z,26.2168,-96.4998,4.0,7.03,150.3,8.73,'11111222,11111222,11111222' 
TABS,ioos:station:wmo:42045:1,2019-06-05T09:00:00Z,26.2168,-96.4998,4.0,7.13,161.1,8.73,'11111222,11111222,11111222' 
TABS,ioos:station:wmo:42045:1,2019-06-05T10:00:00Z,26.2168,-96.4998,4.0,6.25,162.8,7.7,'11111222,11111222,11111222' 
TABS,ioos:station:wmo:42045:1,2019-06-05T11:00:00Z,26.2168,-96.4998,4.0,7.7,153.6,9.38,'11111222,11111222,11111222' 
TABS,ioos:station:wmo:42045:1,2019-06-05T11:30:00Z,26.2168,-96.4998,4.0,8.95,157.3,11.24,'11111222,11111222,11111222' 
TABS,ioos:station:wmo:42045:1,2019-06-05T13:00:00Z,26.2168,-96.4998,4.0,8.26,161.0,9.85,'11111222,11111222,11111222' 
TABS,ioos:station:wmo:42045:1,2019-06-05T14:00:00Z,26.2168,-96.4998,4.0,8.87,169.3,10.52,'11111222,11111222,11111222' 
TABS,ioos:station:wmo:42045:1,2019-06-05T15:00:00Z,26.2168,-96.4998,4.0,11.14,163.0,13.11,'11111222,11111222,11111222' 
TABS,ioos:station:wmo:42045:1,2019-06-05T16:00:00Z,26.2168,-96.4998,4.0,8.96,168.4,10.74,'11111222,11111222,11111222' 
TABS,ioos:station:wmo:42045:1,2019-06-05T17:30:00Z,26.2168,-96.4998,4.0,8.12,175.8,9.59,'11111222,11111222,11111222' 
TABS,ioos:station:wmo:42045:1,2019-06-05T18:30:00Z,26.2168,-96.4998,4.0,8.12,172.5,9.83,'11111222,11111222,11111222' 
TABS,ioos:station:wmo:42045:1,2019-06-05T20:00:00Z,26.2168,-96.4998,4.0,7.64,175.6,8.91,'11111222,11111222,11111222' 
TABS,ioos:station:wmo:42045:1,2019-06-05T23:30:00Z,26.2168,-96.4998,4.0,8.51,163.3,10.02,'11111222,11111222,11111222' 
TABS,ioos:station:wmo:42045:1,2019-06-06T03:00:00Z,26.2168,-96.4998,4.0,6.13,157.8,7.48,'11111222,11111222,11111222' 
TABS,ioos:station:wmo:42045:1,2019-06-06T05:00:00Z,26.2168,-96.4998,4.0,6.26,178.6,7.67,'11111222,11111222,11111222' 
TABS,ioos:station:wmo:42045:1,2019-06-06T09:00:00Z,26.2168,-96.4998,4.0,4.83,179.4,5.74,'11111222,11111222,11111222' 
TABS,ioos:station:wmo:42045:1,2019-06-06T10:00:00Z,26.2168,-96.4998,4.0,3.69,184.2,4.51,'11111222,11111222,11111222' 
TABS,ioos:station:wmo:42045:1,2019-06-06T11:00:00Z,26.2168,-96.4998,4.0,3.73,162.6,4.39,'11111222,11111222,11111222' 
TABS,ioos:station:wmo:42045:1,2019-06-06T12:30:00Z,26.2168,-96.4998,4.0,2.59,156.1,3.27,'11111222,11111222,11111222' 
TABS,ioos:station:wmo:42045:1,2019-06-06T13:30:00Z,26.2168,-96.4998,4.0,3.07,142.0,3.57,'11111222,11111222,11111222' 
TABS,ioos:station:wmo:42045:1,2019-06-06T14:30:00Z,26.2168,-96.4998,4.0,2.94,136.9,3.65,'11111222,11111222,11111222' 
TABS,ioos:station:wmo:42045:1,2019-06-06T16:00:00Z,26.2168,-96.4998,4.0,2.68,147.3,3.15,'11111222,11111222,11111222' 
TABS,ioos:station:wmo:42045:1,2019-06-06T17:00:00Z,26.2168,-96.4998,4.0,4.87,153.8,5.71,'11111222,11111222,11111222' 
TABS,ioos:station:wmo:42045:1,2019-06-06T19:00:00Z,26.2168,-96.4998,4.0,3.63,168.8,4.3,'11111222,11111222,11111222' 
TABS,ioos:station:wmo:42045:1,2019-06-06T20:30:00Z,26.2168,-96.4998,4.0,4.0,167.5,4.64,'11111222,11111222,11111222' 
TABS,ioos:station:wmo:42045:1,2019-06-06T22:00:00Z,26.2168,-96.4998,4.0,3.19,161.9,3.82,'11111222,11111222,11111222' 
TABS,ioos:station:wmo:42045:1,2019-06-06T23:30:00Z,26.2168,-96.4998,4.0,4.56,129.8,5.5,'11111222,11111222,11111222' 
TABS,ioos:station:wmo:42045:1,2019-06-07T04:00:00Z,26.2168,-96.4998,4.0,5.55,130.3,6.52,'11111222,11111222,11111222' 
TABS,ioos:station:wmo:42045:1,2019-06-07T05:00:00Z,26.2168,-96.4998,4.0,4.45,132.3,5.28,'11111222,11111222,11111222' 
TABS,ioos:station:wmo:42045:1,2019-06-07T06:00:00Z,26.2168,-96.4998,4.0,2.69,98.1,3.42,'11111222,11111222,11111222' 
TABS,ioos:station:wmo:42045:1,2019-06-07T07:30:00Z,26.2168,-96.4998,4.0,5.23,146.1,6.22,'11111222,11111222,11111222' 
TABS,ioos:station:wmo:42045:1,2019-06-07T08:30:00Z,26.2168,-96.4998,4.0,5.86,150.7,6.77,'11111222,11111222,11111222' 
TABS,ioos:station:wmo:42045:1,2019-06-07T09:30:00Z,26.2168,-96.4998,4.0,5.29,149.7,6.62,'11111222,11111222,11111222' 
TABS,ioos:station:wmo:42045:1,2019-06-07T12:00:00Z,26.2168,-96.4998,4.0,5.1,175.9,6.27,'11111222,11111222,11111222' 
TABS,ioos:station:wmo:42045:1,2019-06-07T13:30:00Z,26.2168,-96.4998,4.0,3.08,199.2,3.77,'11111222,11111222,11111222' 
TABS,ioos:station:wmo:42045:1,2019-06-07T14:00:00Z,26.2168,-96.4998,4.0,4.69,185.2,5.45,'11111222,11111222,11111222' 
TABS,ioos:station:wmo:42045:1,2019-06-07T15:30:00Z,26.2168,-96.4998,4.0,4.76,196.5,5.47,'11111222,11111222,11111222' 
TABS,ioos:station:wmo:42045:1,2019-06-07T18:00:00Z,26.2168,-96.4998,4.0,2.19,208.9,2.79,'11111222,11111222,11111222' 
TABS,ioos:station:wmo:42045:1,2019-06-07T19:00:00Z,26.2168,-96.4998,4.0,1.6,145.4,2.1,'11111222,11111222,11111222' 
TABS,ioos:station:wmo:42045:1,2019-06-07T20:00:00Z,26.2168,-96.4998,4.0,3.33,140.5,4.15,'11111222,11111222,11111222' 
TABS,ioos:station:wmo:42045:1,2019-06-07T20:30:00Z,26.2168,-96.4998,4.0,3.53,142.0,4.24,'11111222,11111222,11111222' 
TABS,ioos:station:wmo:42045:1,2019-06-07T23:00:00Z,26.2168,-96.4998,4.0,5.58,141.8,6.47,'11111222,11111222,11111222' 
TABS,ioos:station:wmo:42045:1,2019-06-07T23:30:00Z,26.2168,-96.4998,4.0,4.8,135.0,5.73,'11111222,11111222,11111222' 
TABS,ioos:station:wmo:42045:1,2019-06-08T03:30:00Z,26.2168,-96.4998,4.0,5.73,148.0,6.48,'11111222,11111222,11111222' 
TABS,ioos:station:wmo:42045:1,2019-06-08T06:00:00Z,26.2168,-96.4998,4.0,5.29,173.5,5.96,'11111222,11111222,11111222' 
TABS,ioos:station:wmo:42045:1,2019-06-08T07:30:00Z,26.2168,-96.4998,4.0,5.62,186.2,6.68,'11111222,11111222,11111222' 
TABS,ioos:station:wmo:42045:1,2019-06-08T08:30:00Z,26.2168,-96.4998,4.0,5.5,186.9,6.34,'11111222,11111222,11111222' 
TABS,ioos:station:wmo:42045:1,2019-06-08T09:30:00Z,26.2168,-96.4998,4.0,4.84,185.1,5.72,'11111222,11111222,11111222' 
TABS,ioos:station:wmo:42045:1,2019-06-08T11:00:00Z,26.2168,-96.4998,4.0,3.18,182.3,3.84,'11111222,11111222,11111222' 
TABS,ioos:station:wmo:42045:1,2019-06-08T22:30:00Z,26.2168,-96.4998,4.0,4.57,118.8,5.26,'11111222,11111222,11111222' 
TABS,ioos:station:wmo:42045:1,2019-06-08T23:30:00Z,26.2168,-96.4998,4.0,4.87,112.8,5.45,'11111222,11111222,11111222' 
TABS,ioos:station:wmo:42045:1,2019-06-09T02:30:00Z,26.2168,-96.4998,4.0,3.73,125.5,4.51,'11111222,11111222,11111222' 
TABS,ioos:station:wmo:42045:1,2019-06-09T04:30:00Z,26.2168,-96.4998,4.0,4.37,144.3,4.92,'11111222,11111222,11111222' 
TABS,ioos:station:wmo:42045:1,2019-06-09T05:30:00Z,26.2168,-96.4998,4.0,4.66,151.3,5.38,'11111222,11111222,11111222' 
TABS,ioos:station:wmo:42045:1,2019-06-09T06:30:00Z,26.2168,-96.4998,4.0,4.96,152.3,5.66,'11111222,11111222,11111222' 
TABS,ioos:station:wmo:42045:1,2019-06-09T07:30:00Z,26.2168,-96.4998,4.0,4.86,158.3,5.72,'11111222,11111222,11111222' 
TABS,ioos:station:wmo:42045:1,2019-06-09T09:00:00Z,26.2168,-96.4998,4.0,4.02,165.4,4.72,'11111222,11111222,11111222' 
TABS,ioos:station:wmo:42045:1,2019-06-09T11:30:00Z,26.2168,-96.4998,4.0,3.64,175.3,4.53,'11111222,11111222,11111222' 
TABS,ioos:station:wmo:42045:1,2019-06-09T12:30:00Z,26.2168,-96.4998,4.0,2.49,155.7,2.95,'11111222,11111222,11111222' 
TABS,ioos:station:wmo:42045:1,2019-06-09T14:00:00Z,26.2168,-96.4998,4.0,2.49,150.7,2.92,'11111222,11111222,11111222' 
TABS,ioos:station:wmo:42045:1,2019-06-09T15:00:00Z,26.2168,-96.4998,4.0,2.64,142.8,3.39,'11111222,11111222,11111222' 
TABS,ioos:station:wmo:42045:1,2019-06-09T16:00:00Z,26.2168,-96.4998,4.0,3.54,149.3,4.13,'11111222,11111222,11111222' 
TABS,ioos:station:wmo:42045:1,2019-06-09T17:30:00Z,26.2168,-96.4998,4.0,3.89,149.1,4.57,'11111222,11111222,11111222' 
TABS,ioos:station:wmo:42045:1,2019-06-09T18:30:00Z,26.2168,-96.4998,4.0,4.06,142.3,4.45,'11111222,11111222,11111222' 
TABS,ioos:station:wmo:42045:1,2019-06-09T20:00:00Z,26.2168,-96.4998,4.0,3.91,129.8,4.63,'11111222,11111222,11111222' 
TABS,ioos:station:wmo:42045:1,2019-06-09T21:00:00Z,26.2168,-96.4998,4.0,4.29,137.8,5.0,'11111222,11111222,11111222' 
TABS,ioos:station:wmo:42045:1,2019-06-09T21:30:00Z,26.2168,-96.4998,4.0,4.52,132.6,5.24,'11111222,11111222,11111222' 
TABS,ioos:station:wmo:42045:1,2019-06-09T22:30:00Z,26.2168,-96.4998,4.0,5.17,116.2,5.93,'11111222,11111222,11111222' 
TABS,ioos:station:wmo:42045:1,2019-06-09T23:30:00Z,26.2168,-96.4998,4.0,5.75,117.8,6.57,'11111222,11111222,11111222' 
TABS,ioos:station:wmo:42045:1,2019-06-10T04:00:00Z,26.2168,-96.4998,4.0,5.17,104.9,6.02,'11111222,11111222,11111222' 
TABS,ioos:station:wmo:42045:1,2019-06-10T05:00:00Z,26.2168,-96.4998,4.0,3.7,117.3,4.49,'11111222,11111222,11111222' 
TABS,ioos:station:wmo:42045:1,2019-06-10T06:30:00Z,26.2168,-96.4998,4.0,3.69,131.0,4.57,'11111222,11111222,11111222' 
TABS,ioos:station:wmo:42045:1,2019-06-10T07:30:00Z,26.2168,-96.4998,4.0,3.67,165.6,4.6,'11111222,11111222,11111222' 
TABS,ioos:station:wmo:42045:1,2019-06-10T08:30:00Z,26.2168,-96.4998,4.0,0.74,222.6,1.13,'11111222,11111222,11111222' 
TABS,ioos:station:wmo:42045:1,2019-06-10T09:30:00Z,26.2168,-96.4998,4.0,0.25,345.5,0.62,'11111222,11111222,11111222' 
TABS,ioos:station:wmo:42045:1,2019-06-10T11:00:00Z,26.2168,-96.4998,4.0,2.53,338.8,2.93,'11111222,11111222,11111222' 
TABS,ioos:station:wmo:42045:1,2019-06-10T16:00:00Z,26.2168,-96.4998,4.0,4.6,39.2,5.36,'11111222,11111222,11111222' 
TABS,ioos:station:wmo:42045:1,2019-06-10T17:00:00Z,26.2168,-96.4998,4.0,5.1,40.6,5.72,'11111222,11111222,11111222' 
TABS,ioos:station:wmo:42045:1,2019-06-10T18:30:00Z,26.2168,-96.4998,4.0,4.71,24.7,5.48,'11111222,11111222,11111222' 
TABS,ioos:station:wmo:42045:1,2019-06-10T19:00:00Z,26.2168,-96.4998,4.0,5.04,29.7,6.0,'11111222,11111222,11111222' 
TABS,ioos:station:wmo:42045:1,2019-06-10T21:00:00Z,26.2168,-96.4998,4.0,5.69,41.1,6.49,'11111222,11111222,11111222' 
TABS,ioos:station:wmo:42045:1,2019-06-10T22:00:00Z,26.2168,-96.4998,4.0,7.15,34.4,8.39,'11111222,11111222,11111222' 
TABS,ioos:station:wmo:42045:1,2019-06-10T23:00:00Z,26.2168,-96.4998,4.0,5.62,32.5,7.66,'11111222,11111222,11111222' 
TABS,ioos:station:wmo:42045:1,2019-06-10T23:30:00Z,26.2168,-96.4998,4.0,6.45,36.3,7.68,'11111222,11111222,11111222' 
TABS,ioos:station:wmo:42045:1,2019-06-11T04:00:00Z,26.2168,-96.4998,4.0,6.32,62.9,7.28,'11111222,11111222,11111222' 
TABS,ioos:station:wmo:42045:1,2019-06-11T05:00:00Z,26.2168,-96.4998,4.0,6.01,58.5,7.03,'11111222,11111222,11111222' 
TABS,ioos:station:wmo:42045:1,2019-06-11T06:30:00Z,26.2168,-96.4998,4.0,4.66,43.4,5.56,'11111222,11111222,11111222' 
TABS,ioos:station:wmo:42045:1,2019-06-11T11:30:00Z,26.2168,-96.4998,4.0,4.14,7.1,5.02,'11111222,11111222,11111222' 
TABS,ioos:station:wmo:42045:1,2019-06-11T12:30:00Z,26.2168,-96.4998,4.0,3.94,3.6,4.66,'11111222,11111222,11111222' 
TABS,ioos:station:wmo:42045:1,2019-06-11T13:30:00Z,26.2168,-96.4998,4.0,5.66,23.8,6.9,'11111222,11111222,11111222' 
TABS,ioos:station:wmo:42045:1,2019-06-11T14:30:00Z,26.2168,-96.4998,4.0,4.71,30.9,5.72,'11111222,11111222,11111222' 
TABS,ioos:station:wmo:42045:1,2019-06-11T17:00:00Z,26.2168,-96.4998,4.0,2.2,59.8,2.81,'11111222,11111222,11111222' 
TABS,ioos:station:wmo:42045:1,2019-06-11T18:00:00Z,26.2168,-96.4998,4.0,1.44,50.4,2.34,'11111222,11111222,11111222' 
TABS,ioos:station:wmo:42045:1,2019-06-11T23:30:00Z,26.2168,-96.4998,4.0,3.06,55.5,4.13,'11111222,11111222,11111222' 
TABS,ioos:station:wmo:42045:1,2019-06-12T01:00:00Z,26.2168,-96.4998,4.0,4.72,70.7,6.06,'11111222,11111222,11111222' 
TABS,ioos:station:wmo:42045:1,2019-06-12T05:30:00Z,26.2168,-96.4998,4.0,3.87,91.6,4.77,'11111222,11111222,11111222' 
TABS,ioos:station:wmo:42045:1,2019-06-12T06:30:00Z,26.2168,-96.4998,4.0,4.01,111.3,4.94,'11111222,11111222,11111222' 
TABS,ioos:station:wmo:42045:1,2019-06-12T07:30:00Z,26.2168,-96.4998,4.0,4.17,117.2,4.9,'11111222,11111222,11111222' 
TABS,ioos:station:wmo:42045:1,2019-06-12T08:30:00Z,26.2168,-96.4998,4.0,9.67,68.7,12.15,'11111222,11111222,11111222' 
TABS,ioos:station:wmo:42045:1,2019-06-12T09:30:00Z,26.2168,-96.4998,4.0,3.76,355.2,6.0,'11111222,11111222,11111222' 
TABS,ioos:station:wmo:42045:1,2019-06-12T11:00:00Z,26.2168,-96.4998,4.0,5.15,88.1,6.63,'11111222,11111222,11111222' 
TABS,ioos:station:wmo:42045:1,2019-06-12T12:00:00Z,26.2168,-96.4998,4.0,4.03,145.3,5.45,'11111222,11111222,11111222' 
TABS,ioos:station:wmo:42045:1,2019-06-12T13:00:00Z,26.2168,-96.4998,4.0,2.99,153.9,3.98,'11111222,11111222,11111222' 
TABS,ioos:station:wmo:42045:1,2019-06-12T14:00:00Z,26.2168,-96.4998,4.0,1.37,147.7,2.61,'11111222,11111222,11111222' 
TABS,ioos:station:wmo:42045:1,2019-06-12T14:30:00Z,26.2168,-96.4998,4.0,1.83,176.9,2.6,'11111222,11111222,11111222' 
TABS,ioos:station:wmo:42045:1,2019-06-12T16:00:00Z,26.2168,-96.4998,4.0,1.33,31.9,2.07,'11111222,11111222,11111222' 
TABS,ioos:station:wmo:42045:1,2019-06-12T17:00:00Z,26.2168,-96.4998,4.0,2.73,205.9,3.92,'11111222,11111222,11111222' 
TABS,ioos:station:wmo:42045:1,2019-06-12T18:00:00Z,26.2168,-96.4998,4.0,0.64,268.0,1.13,'11111222,11111222,11111222' 
TABS,ioos:station:wmo:42045:1,2019-06-12T19:00:00Z,26.2168,-96.4998,4.0,1.32,24.2,2.29,'11111222,11111222,11111222' 
TABS,ioos:station:wmo:42045:1,2019-06-12T20:00:00Z,26.2168,-96.4998,4.0,2.25,358.5,3.06,'11111222,11111222,11111222' 
TABS,ioos:station:wmo:42045:1,2019-06-12T21:00:00Z,26.2168,-96.4998,4.0,7.07,27.1,8.29,'11111222,11111222,11111222' 
TABS,ioos:station:wmo:42045:1,2019-06-12T22:00:00Z,26.2168,-96.4998,4.0,2.42,62.5,3.54,'11111222,11111222,11111222' 
TABS,ioos:station:wmo:42045:1,2019-06-12T23:00:00Z,26.2168,-96.4998,4.0,3.38,53.8,4.47,'11111222,11111222,11111222' 
TABS,ioos:station:wmo:42045:1,2019-06-12T23:30:00Z,26.2168,-96.4998,4.0,2.27,56.4,3.38,'11111222,11111222,11111222' 
TABS,ioos:station:wmo:42045:1,2019-06-13T04:00:00Z,26.2168,-96.4998,4.0,2.61,20.0,3.6,'11111222,11111222,11111222' 
TABS,ioos:station:wmo:42045:1,2019-06-13T05:00:00Z,26.2168,-96.4998,4.0,2.88,35.5,4.09,'11111222,11111222,11111222' 
TABS,ioos:station:wmo:42045:1,2019-06-13T06:00:00Z,26.2168,-96.4998,4.0,2.97,48.0,4.07,'11111222,11111222,11111222' 
TABS,ioos:station:wmo:42045:1,2019-06-13T07:30:00Z,26.2168,-96.4998,4.0,4.13,48.8,5.22,'11111222,11111222,11111222' 
TABS,ioos:station:wmo:42045:1,2019-06-13T08:30:00Z,26.2168,-96.4998,4.0,3.97,74.6,5.04,'11111222,11111222,11111222' 
TABS,ioos:station:wmo:42045:1,2019-06-13T10:00:00Z,26.2168,-96.4998,4.0,5.06,86.1,6.12,'11111222,11111222,11111222' 
TABS,ioos:station:wmo:42045:1,2019-06-13T10:30:00Z,26.2168,-96.4998,4.0,4.89,94.9,5.87,'11111222,11111222,11111222' 
TABS,ioos:station:wmo:42045:1,2019-06-13T11:30:00Z,26.2168,-96.4998,4.0,4.11,92.2,5.15,'11111222,11111222,11111222' 
TABS,ioos:station:wmo:42045:1,2019-06-13T13:30:00Z,26.2168,-96.4998,4.0,3.79,82.0,4.82,'11111222,11111222,11111222' 
TABS,ioos:station:wmo:42045:1,2019-06-13T14:30:00Z,26.2168,-96.4998,4.0,76.5,151.9,4.11,'11144222,11111222,11111222' 
TABS,ioos:station:wmo:42045:1,2019-06-13T17:00:00Z,26.2168,-96.4998,4.0,3.32,41.4,4.41,'11111222,11111222,11111222' 
TABS,ioos:station:wmo:42045:1,2019-06-13T18:00:00Z,26.2168,-96.4998,4.0,3.35,47.3,4.85,'11111222,11111222,11111222' 
TABS,ioos:station:wmo:42045:1,2019-06-13T19:00:00Z,26.2168,-96.4998,4.0,4.13,44.9,5.29,'11111222,11111222,11111222' 
TABS,ioos:station:wmo:42045:1,2019-06-13T20:00:00Z,26.2168,-96.4998,4.0,3.68,50.4,4.91,'11111222,11111222,11111222' 
TABS,ioos:station:wmo:42045:1,2019-06-13T21:00:00Z,26.2168,-96.4998,4.0,3.55,58.9,4.83,'11111222,11111222,11111222' 
TABS,ioos:station:wmo:42045:1,2019-06-13T22:00:00Z,26.2168,-96.4998,4.0,4.33,46.4,5.51,'11111222,11111222,11111222' 
TABS,ioos:station:wmo:42045:1,2019-06-13T22:30:00Z,26.2168,-96.4998,4.0,4.36,54.0,5.55,'11111222,11111222,11111222' 
TABS,ioos:station:wmo:42045:1,2019-06-13T23:30:00Z,26.2168,-96.4998,4.0,4.71,56.3,5.88,'11111222,11111222,11111222' 
TABS,ioos:station:wmo:42045:1,2019-06-14T01:30:00Z,26.2168,-96.4998,4.0,5.68,66.3,7.46,'11111222,11111222,11111222' 
TABS,ioos:station:wmo:42045:1,2019-06-14T04:00:00Z,26.2168,-96.4998,4.0,6.39,106.8,7.98,'11111222,11111222,11111222' 
TABS,ioos:station:wmo:42045:1,2019-06-14T06:30:00Z,26.2168,-96.4998,4.0,6.54,122.6,8.0,'11111222,11111222,11111222' 
TABS,ioos:station:wmo:42045:1,2019-06-14T08:00:00Z,26.2168,-96.4998,4.0,5.51,127.0,6.98,'11111222,11111222,11111222' 
TABS,ioos:station:wmo:42045:1,2019-06-14T09:00:00Z,26.2168,-96.4998,4.0,4.48,137.3,5.45,'11111222,11111222,11111222' 
TABS,ioos:station:wmo:42045:1,2019-06-14T10:00:00Z,26.2168,-96.4998,4.0,3.84,134.3,4.78,'11111222,11111222,11111222' 
TABS,ioos:station:wmo:42045:1,2019-06-14T12:00:00Z,26.2168,-96.4998,4.0,4.67,136.4,5.65,'11111222,11111222,11111222' 
TABS,ioos:station:wmo:42045:1,2019-06-14T14:00:00Z,26.2168,-96.4998,4.0,4.11,154.9,5.28,'11111222,11111222,11111222' 
TABS,ioos:station:wmo:42045:1,2019-06-14T14:30:00Z,26.2168,-96.4998,4.0,4.18,146.7,5.06,'11111222,11111222,11111222' 